LTB5 (KAYSERİ/SOĞANLI) TANITMALI BÖLGE

  • SEKTÖREL METEOROLOJİK DEĞERLENDİRME

  • SOĞANLI UÇULMAZ

Meteorolojik şartların belirlenen saat aralığında uçuş için uygun olmadığı değerlendirilmiştir.

  • GÜNCELLEME TARİHİ ve SAATİ :

  • 21.06.2024 - 11:18

  • GEÇERLİ TARİH ve SAATLER :

  • 22.06.2024 - 01:45 - 17:10

Büyük Harita İçin Tıklayınız

Sıcaklık
Basınç
Gün Doğum Saati
Gün Batım Saati
Bu bölümde yer alan bildirim meteorolojik veriler doğrultusunda ilgili gün ve zaman aralığında planlanan uçuşlara dair bağlayıcı niteliktedir. Kırmızı ve Sarı bayrak durumlarında kalkış uygunluğu verilmeyecektir. Yeşil bayrak durumunda nihai uçma kararı pilot ve işletme sorumluluğundadır
Kırmızı ve/veya sarı bayrağın ilan edildiği durumlarda yalnızca öğretmen pilot ile beraber yapılacak eğitim uçuşları (çift kumanda) için SHGM yetkilileri ile irtibata geçilerek eğitim uçuşları gerçekleştirilebilecektir.

METAR

LTAZ 210120Z VRB07G21KT CAVOK 22/07 Q1016 RMK RWY29 09013G28KT 030V140

TAFF

TAF LTAZ 202240Z 2100/2124 03012KT CAVOK TEMPO 2102/2105 FEW015 BECMG 2106/2109 03018G28KT FEW040 BECMG 2112/2115 CAVOK BECMG 2121/2124 03008KT

METAR - TAF bilgileri Aviation Weather Center'dan alınmaktadır.

AIRGRAM

Göreme Airgramı, Meteoroloji Genel Müdürlüğü'nden alınmaktadır.

Meteorolojik veriler sitede bilgilendirme amacıyla yer almaktadır.